Regional Weather Roundup
Issued by NWS Mt. Holly, NJ

Current Version | Previous Version | Text Only | Print | Product List | Glossary On
Versions: 1 2 3 4 5 6 7 8 9 10 11 12 13 14 15 16 17 18 19 20 21 22 23 24 25 26 27
000
ASUS41 KPHI 272212
RWRPHI

REGIONAL WEATHER ROUNDUP
NATIONAL WEATHER SERVICE MOUNT HOLLY NJ
600 PM EDT MON MAR 27 2017

NOTE:  "FAIR" INDICATES FEW OR NO CLOUDS BELOW 12,000 FEET WITH NO
SIGNIFICANT WEATHER AND/OR OBSTRUCTIONS TO VISIBILITY.

 * = STATION DOES NOT REPORT PRECIPITATION (E.G. RAIN, SNOW, ETC.)
        OR FOG.

NJZ015>026-272300-
SOUTHERN NEW JERSEY

CITY           SKY/WX    TMP DP  RH WIND       PRES   REMARKS
POMONA         PTSUNNY   65  54  67 SE7       29.96F
WILDWOOD*      MOSUNNY   64  52  64 SE6       29.98S
MILLVILLE      SUNNY     69  58  67 VRB3      29.95F
WRIGHTSTOWN    SUNNY     60  53  77 NW5       29.95F
MOUNT HOLLY    SUNNY     60  52  74 NW3       29.97F
TRENTON        CLOUDY    56  51  84 S5        29.97F HAZE

$$
NJZ001>014-272300-
NORTHERN NEW JERSEY

CITY           SKY/WX    TMP DP  RH WIND       PRES   REMARKS
SUSSEX         CLOUDY    50  46  86 NE3       29.97F
ANDOVER*         N/A     55  47  74 CALM      29.97S
MORRISTOWN     MOSUNNY   55  48  76 W3        29.98F
NEWARK         PTSUNNY   56  48  74 W9        29.98F
TETERBORO      MOSUNNY   54  47  77 CALM      29.97F
CALDWELL       CLOUDY    54  47  77 CALM      29.98F
SOMERVILLE     PTSUNNY   55  49  80 CALM      29.96S
ALLAIRE*       CLOUDY    58  53  84 W3        29.99F
TOMS RIVER*    PTSUNNY   63  56  78 NW6       29.97F

$$
PAZ043-044-047-054-055-060>062-066>071-272300-
EASTERN PENNSYLVANIA

CITY           SKY/WX    TMP DP  RH WIND       PRES   REMARKS
PHILADELPHIA   PTSUNNY   61  53  75 CALM      29.97F
NORTH PHILA    CLOUDY    59  53  80 VRB5      29.98F HAZE
BLUE BELL*     SUNNY     57  52  82 CALM      29.96S
DOYLESTOWN     CLOUDY    56  51  84 SW3       29.96F
QUAKERTOWN*    PTSUNNY   55  50  82 CALM      29.98F
PERKASIE*      FAIR      55  50  82 CALM      29.98F
POTTSTOWN      SUNNY     58  50  75 CALM      29.97F
LANCASTER      SUNNY     60  54  80 E6        29.95F
COATESVILLE    SUNNY     63  55  77 CALM      29.97S
READING        CLOUDY    57  51  80 CALM      29.95F
ALLENTOWN      CLOUDY    57  48  72 S5        29.97F
MOUNT POCONO   SUNNY     56  48  74 W9        29.94F
HAZLETON       CLOUDY    61  50  67 W3        29.96F
LEHIGHTON      FAIR      61  50  67 S8        29.95F
WILKES BARRE   SUNNY     57  48  72 W3        29.94F

$$
DEZALL-MDZ008-012-015-019-020-272300-
DELAWARE AND EASTERN MARYLAND

CITY           SKY/WX    TMP DP  RH WIND       PRES   REMARKS
WILMINGTON     SUNNY     64  55  72 CALM      29.96F
DOVER          SUNNY     64  61  87 E7        29.95F
GEORGETOWN     PTSUNNY   73  56  54 SW9       29.97S
EASTON         PTSUNNY   75  57  53 S9        29.98F
ABERDEEN       PTSUNNY   65  54  65 S3        29.96F
PATUXENT       PTSUNNY   61  54  77 E6        29.93F
OCEAN CITY     MOSUNNY   63  51  65 SW10      29.99F
WALLOPS ISLAND MOSUNNY   61  52  72 S15       29.99F
CAMBRIDGE      MOSUNNY   70  57  64 SE13      29.95F
SALISBURY      SUNNY     72  57  59 SW10      29.96F

$$
PAZ001-021-NYZ056-072-MDZ011-DCZ001-272300-
OTHER NEARBY LOCATIONS

CITY           SKY/WX    TMP DP  RH WIND       PRES   REMARKS
HARRISBURG     PTSUNNY   58  51  78 S3        29.93F
STATE COLLEGE  MOSUNNY   66  48  52 CALM      29.90F
WILLIAMSPORT   CLOUDY    59  48  67 E8        29.91F
BINGHAMTON     PTSUNNY   55  46  71 CALM      29.91F
NEW YORK CITY  CLOUDY    51  44  77 NE6       30.01F
BALTIMORE      PTSUNNY   66  54  65 E8        29.93F
WASHINGTON DC  PTSUNNY   73  58  59 NE3       29.92F

$$




USA.gov is the U.S. government's official web portal to all federal, state and local government web resources and services.